FENGYUN 1C DEB

Satellite information

Favourite Embed

Satellite Type and Status

DEBRISIN ORBIT

Key statistics

Satellite FENGYUN 1C DEB at a glance.

Uptime

9714

Days in orbit

Revolutions

≈ 14.3

Per day

Orbit

SSO

Sun Synchronous Orbit

Inclination

98.9

Latest

Satellite identification and parameters

Extended collection of information and parameters for FENGYUN 1C DEB.

Object identification

Identified? True

Debris? True

Object name: FENGYUN 1C DEB

International designator: 1999-025DMV

Object number (NORAD): 35165

Object ID (CCSDS): 35165

Country: PEOPLES REPUBLIC OF CHINA (PRC)

Current information (Y/N): Y

RCS size: SMALL

Orbital parameters

Period: 100.449 minutes

Inclination: 98.8778 deg

SMA: 7157.959 km

Apoapsis: 795.492 km

Periapsis: 764.156 km

RAAN: 65.7738 deg

Eccentricy: 0.00218891

Argument of periapsis: 100.7376 deg

Mean anomaly: 259.6273 deg

Mean motion: 14.33570134 rev/day

Mean motion (dot): 0.00006727 rev/day2

B* drag term: 0.0024382815 1/REarth

Two-line elements (TLE)

Creation date: Nov. 30, 2025, 5:58 p.m.

Reference frame: TEME

Reference center: EARTH

Epoch: Nov. 30, 2025, 5:14 a.m. UTC

TLE line 0: 0 FENGYUN 1C DEB

TLE line 1: 1 35165U 99025DMV 25334.21805776 .00006727 00000-0 24383-2 0 9992

TLE line 2: 2 35165 98.8778 65.7738 0021889 100.7376 259.6273 14.33570134895419

Live tracking on map

Real-time ground track for satellite FENGYUN 1C DEB.

In-orbit conjunctions

A list of the most updated potential collisions computed for object FENGYUN 1C DEB.

Target Orbit TCA Probability of collision Miss distance Type
CZ-6A DEB LEO 2025-02-20 13:16:29 0.0002120712 251.0 (m) DEBRIS
METEOR 2-9 LEO 2024-06-20 13:29:03 0.0001025149 769.0 (m) PAYLOAD

Associated space launch

Chinese polar orbiting meteorological satellite

FENGYUN 1C DEB was lifted into orbit during the mission ‘Long March 4B | Feng Yun 1C’, on board a Long March 4B space rocket.

The launch took place on May 10, 1999, 1:33 a.m. from Launch Complex 7.

For more information about the launch, click the button.

Launch to space Long March 4B | Feng Yun 1C
Long March 4B | Feng Yun 1C

Agency: N/A

Status: Launch Successful

Launch date: May 10, 1999, 1:33 a.m. UTC

Rocket: Long March 4B

Launch pad: Launch Complex 7

Location: Taiyuan Satellite Launch Center, People's Republic of China

...

Latest news about this satellite

There are no fresh news available about this satellite. Check back as we update our databases every day.


Newsletter sign-up

Weekly statistics, charts and insights to help you stay on top of the space industry.